EDT,Max TemperatureF,Mean TemperatureF,Min TemperatureF,Max Dew PointF,MeanDew PointF,Min DewpointF,Max Humidity, Mean Humidity, Min Humidity, Max Sea Level PressureIn, Mean Sea Level PressureIn, Min Sea Level PressureIn, Max VisibilityMiles, Mean VisibilityMiles, Min VisibilityMiles, Max Wind SpeedMPH, Mean Wind SpeedMPH, Max Gust SpeedMPH,PrecipitationIn, CloudCover, Events, WindDirDegrees
2013-9-1,86,78,69,69,68,66,93,76,51,29.85,29.79,29.74,10,8,2,12,5,16,0.00,5,,186
2013-9-2,77,68,59,69,60,50,93,72,48,29.99,29.88,29.77,10,8,3,18,6,30,0.00,4,Rain,327
2013-9-3,76,66,55,56,53,49,91,66,44,30.07,30.03,29.97,10,10,10,13,4,16,0.00,3,,331
2013-9-4,81,66,52,61,55,51,97,72,37,30.13,30.10,30.06,10,8,1,14,4,21,0.00,0,,255
2013-9-5,74,64,55,58,47,29,91,60,19,30.27,30.22,30.13,10,10,10,12,2,16,0.00,2,,43
2013-9-6,80,64,49,55,49,43,92,61,29,30.28,30.20,30.08,10,10,10,10,3,,0.00,0,,173
2013-9-7,88,74,60,66,59,54,81,64,38,30.07,30.00,29.93,10,10,10,15,4,17,0.00,2,Rain,247
2013-9-8,80,72,64,66,62,59,94,74,50,30.08,30.02,29.97,10,8,3,16,4,20,0.00,4,,96
2013-9-9,88,73,58,71,63,54,90,71,51,30.06,29.97,29.89,10,10,7,13,7,17,0.00,3,Rain,159
2013-9-10,96,84,73,71,66,59,88,58,29,30.04,30.00,29.91,10,9,5,16,8,23,0.00,0,,234
2013-9-11,93,82,71,73,69,63,100,72,37,30.08,30.03,29.95,10,8,2,16,6,47,0.00,2,Rain,228
2013-9-12,80,70,59,64,53,49,82,54,34,30.04,29.96,29.90,10,10,10,15,7,22,0.00,2,,341
2013-9-13,62,54,46,50,44,40,89,69,46,30.15,30.11,30.04,10,10,7,14,5,21,0.00,2,,355
2013-9-14,70,54,39,47,41,36,96,66,29,30.22,30.15,30.09,10,9,0,10,1,,0.00,0,Fog,208
2013-9-15,62,54,47,54,49,42,93,79,59,30.15,30.09,30.05,10,10,7,10,2,,0.00,4,Rain,138
2013-9-16,64,57,50,55,50,45,94,77,50,30.36,30.29,30.15,10,9,5,9,3,16,0.00,5,,34
2013-9-17,70,56,41,49,44,40,93,67,35,30.39,30.32,30.21,10,10,5,9,4,,0.00,0,,107
2013-9-18,81,66,50,56,51,46,93,62,29,30.20,30.10,30.01,10,10,10,10,3,16,0.00,1,,174
2013-9-19,73,68,64,67,64,54,94,86,58,30.04,29.98,29.89,10,8,3,17,5,18,0.00,3,Rain,189
2013-9-20,73,68,64,70,67,60,93,86,77,29.90,29.83,29.77,10,8,3,13,8,18,0.00,5,Rain,229
2013-9-21,67,60,53,60,51,46,94,73,49,29.92,29.82,29.74,10,10,10,16,7,29,0.00,4,Rain,308
2013-9-22,61,53,45,49,44,41,90,68,50,30.08,30.01,29.92,10,10,10,12,4,16,0.00,3,,18
2013-9-23,65,52,40,48,44,39,93,74,47,30.17,30.12,30.08,10,10,10,9,2,,0.00,1,,106
2013-9-24,70,55,40,48,44,38,94,69,36,30.13,30.07,29.97,10,9,3,10,3,16,0.00,0,,105
2013-9-25,72,58,43,54,48,42,95,74,42,30.01,29.98,29.95,10,8,0,8,3,,0.00,0,Fog,81
2013-9-26,78,60,42,52,46,39,95,68,25,30.13,30.08,29.99,10,7,0,9,2,,0.00,0,Fog,72
2013-9-27,79,61,43,55,49,41,93,67,35,30.23,30.17,30.13,10,9,3,10,3,,0.00,0,,122
2013-9-28,81,64,48,56,51,47,95,64,32,30.17,30.10,29.99,10,8,0,14,5,23,0.00,0,Fog,161
2013-9-29,67,59,51,61,54,50,94,74,54,30.03,30.00,29.95,10,10,1,13,6,16,0.00,5,Rain,292
2013-9-30,72,58,45,59,50,44,99,80,44,30.03,29.98,29.93,10,5,0,12,1,16,0.00,3,Fog,205